[[[{"header":{"parameterUnit":"kt","parameterCategory":2,"dx":1,"dy":1,"la1":30.253999710083008,"la2":30.299108505249023,"lo1":-89.0895004272461,"lo2":-89.04439544677734,"nx":28,"ny":28,"refTime":"2022-09-21T21:00:00:Z","depth":0,"parameterNumber":1,"parameterNumberName":"U-component_of_WINDS"},"data":[1.1906,1.1971,1.2005,1.2094,1.214,1.2206,1.224,1.2287,1.2332,1.2412,1.2464,1.2503,1.2559,1.2627,1.2683,1.2698,1.2719,1.2717,1.2736,1.2716,1.2715,1.2715,1.2702,1.2722,1.2722,1.2751,1.2752,1.2752,1.1886,1.1932,1.199,1.2069,1.2118,1.214,1.2203,1.2242,1.2299,1.2356,1.2409,1.2482,1.2543,1.2601,1.2665,1.2693,1.2706,1.2708,1.2706,1.2714,1.2694,1.2681,1.2696,1.2696,1.2696,1.2696,1.2696,1.2696,1.1859,1.1897,1.1965,1.2029,1.2077,1.2129,1.217,1.2219,1.2274,1.2347,1.2375,1.244,1.2502,1.2595,1.2633,1.2683,1.2687,1.2699,1.2701,1.2703,1.2701,1.2651,1.2695,1.2695,1.2696,1.2696,1.2696,0,1.185,1.1876,1.1934,1.2002,1.205,1.2106,1.2162,1.2188,1.2254,1.2296,1.2361,1.2403,1.2485,1.2548,1.2614,1.2653,1.2678,1.2685,1.2693,1.268,1.2659,1.2669,1.2634,1.2683,1.2683,1.2683,1.2683,1.2683,1.1824,1.1865,1.1953,1.1989,1.2029,1.2086,1.2127,1.2182,1.2222,1.2298,1.2328,1.2392,1.2447,1.2542,1.2596,1.2656,1.2669,1.2684,1.2678,1.2664,1.2668,1.2665,1.2669,1.2683,1.2683,1.2683,1.2683,0,1.1805,1.1863,1.1937,1.2021,1.2043,1.2082,1.2152,1.2192,1.2235,1.2294,1.2311,1.2377,1.2438,1.2491,1.2571,1.2596,1.2656,1.2668,1.2635,1.264,1.2657,1.2655,1.2709,1.2718,1.2699,1.2699,1.27,0,1.1805,1.1857,1.1939,1.1979,1.2037,1.2093,1.2148,1.2191,1.2247,1.2295,1.2334,1.2377,1.2438,1.2488,1.2525,1.2584,1.26,1.2622,1.2631,1.2618,1.2615,1.2639,1.2637,1.2652,1.2651,1.2651,1.2651,0,1.177,1.1875,1.1941,1.1974,1.2069,1.2097,1.2137,1.2201,1.224,1.2299,1.2325,1.2389,1.2423,1.2471,1.2518,1.2512,1.2592,1.2594,1.2615,1.2613,1.2629,1.2627,1.2663,1.265,1.265,1.265,1.265,0,1.1779,1.1841,1.1928,1.2008,1.2033,1.2076,1.2144,1.2193,1.2257,1.2285,1.2331,1.2364,1.2421,1.2419,1.2498,1.2476,1.2507,1.2535,1.2537,1.2545,1.2541,1.2552,1.2582,1.2586,1.2552,1.2551,1.255,0,1.1722,1.1827,1.1876,1.1958,1.2013,1.2055,1.2103,1.216,1.2201,1.2252,1.2296,1.2354,1.2364,1.2389,1.2421,1.2469,1.2496,1.2467,1.2536,1.2538,1.2517,1.2545,1.2536,1.257,1.2541,1.2542,1.2542,0,1.1685,1.1803,1.1814,1.1854,1.1941,1.1987,1.2043,1.2114,1.2145,1.2205,1.2252,1.2335,1.2345,1.2387,1.242,1.245,1.2479,1.2457,1.246,1.2458,1.2541,1.2532,1.2537,1.2494,1.2495,1.2496,1.2535,0,1.1683,1.1744,1.1778,1.1865,1.1911,1.1965,1.2025,1.2064,1.2092,1.2135,1.2205,1.2265,1.2336,1.2357,1.2385,1.2439,1.2438,1.2448,1.245,1.2468,1.2482,1.2488,1.2424,1.2424,1.2424,1.2425,0,0,1.1613,1.1703,1.1757,1.1815,1.1856,1.1899,1.1952,1.1997,1.2087,1.2113,1.2115,1.224,1.2289,1.2367,1.2378,1.2407,1.2421,1.2413,1.2459,1.2463,1.2466,1.248,1.2485,1.2425,1.2425,1.2426,1.2426,0,1.1626,1.168,1.1733,1.1783,1.1859,1.1902,1.1915,1.1997,1.2026,1.2097,1.213,1.2179,1.2278,1.2325,1.2362,1.2405,1.2426,1.2422,1.2425,1.246,1.2463,1.2466,1.248,1.2485,1.2426,1.2426,1.2426,0,1.16,1.1662,1.1695,1.1794,1.1843,1.19,1.1916,1.1975,1.2017,1.206,1.2129,1.2171,1.2239,1.2306,1.2339,1.2341,1.2428,1.2411,1.2411,1.2415,1.2452,1.2455,1.2459,1.2415,1.2414,1.2414,0,0,1.1601,1.1659,1.1743,1.1801,1.183,1.1896,1.1932,1.1965,1.2027,1.2052,1.2106,1.2164,1.2222,1.2259,1.2317,1.2383,1.24,1.2407,1.2408,1.2408,1.2413,1.2449,1.2453,1.2413,1.2413,1.2413,0,0,1.1602,1.1703,1.1722,1.1796,1.1855,1.1941,1.1972,1.1996,1.2055,1.2056,1.2112,1.213,1.2194,1.2233,1.2213,1.2317,1.2318,1.2324,1.229,1.2291,1.2292,1.2281,1.2237,0,0,0,0,0,1.1646,1.1691,1.1707,1.1728,1.1853,1.1932,1.1948,1.1997,1.1996,1.202,1.2068,1.209,1.2233,1.2217,1.2236,1.2258,1.24,1.2402,1.2404,1.2376,1.2377,1.2378,0,0,0,0,0,0,1.1655,1.1681,1.1706,1.1792,1.1821,1.1931,1.194,1.1954,1.1995,1.1998,1.208,1.2092,1.2134,1.221,1.2227,1.2247,1.2231,1.2401,1.2403,1.2405,1.2377,1.2377,1.2378,0,0,0,0,0,1.1662,1.1684,1.1871,1.1792,1.1817,1.1892,1.1939,1.1951,1.1983,1.2059,1.2072,1.2016,1.2133,1.2151,1.222,1.2238,1.222,1.2226,1.2402,1.2404,1.2405,1.2377,0,0,0,0,0,0,1.1668,1.1695,1.1877,1.1887,1.178,1.1887,1.1906,1.1948,1.2042,1.2056,1.1998,1.1999,1.2134,1.2147,1.216,1.2232,1.2211,1.2217,1.2221,1.2403,1.2404,1.2406,0,0,0,0,0,0,1.1683,1.1702,1.1882,1.1864,1.1871,1.1882,1.1899,1.1965,1.2043,1.1976,1.198,1.1997,1.2113,1.2144,1.2155,1.2256,1.2204,1.221,1.2214,1.2216,1.2404,1.2405,0,0,0,0,0,0,1.1692,1.1708,1.1862,1.1867,1.1874,1.1981,1.1941,1.2065,1.2029,1.1971,1.2027,1.2026,1.211,1.2121,1.2151,1.2247,1.2253,1.2204,1.2208,1.2211,1.2213,0,0,0,0,0,0,0,1.1699,1.1581,1.1823,1.1871,1.1876,1.1972,1.1975,1.1977,1.2029,1.2028,1.2027,1.2026,1.217,1.2177,1.2183,1.224,0,0,1.2203,1.2206,0,0,0,0,0,0,0,0,1.1575,1.1579,1.1823,1.1825,1.1827,1.1972,1.1975,1.1977,1.2029,1.2028,1.2027,1.2027,1.2172,1.2177,1.2183,0,0,0,0,0,0,0,0,0,0,0,0,0,0,0,1.1823,1.1825,0,1.1973,1.1974,1.1976,1.2029,1.2028,1.2028,1.2027,1.2174,1.2178,1.2182,0,0,0,0,0,0,0,0,0,0,0,0,0,0,0,0,0,0,0,0,0,0,0,0,0,0,0,0,0,0,0,0,0,0,0,0,0,0,0,0,0,0,0,0,0,0,0,0,0,0,0,0,0,0,0,0,0,0,0,0,0,0,0,0,0,0,0,0,0]}],[{"header":{"parameterUnit":"kt","parameterCategory":2,"dx":1,"dy":1,"la1":30.253999710083008,"la2":30.299108505249023,"lo1":-89.0895004272461,"lo2":-89.04439544677734,"nx":28,"ny":28,"refTime":"2022-09-21T21:00:00:Z","depth":0,"parameterNumber":2,"parameterNumberName":"V-component_of_WINDS"},"data":[3.4645,3.4544,3.4468,3.4314,3.4219,3.4098,3.403,3.3932,3.3833,3.3675,3.3569,3.3476,3.3341,3.3191,3.3068,3.3027,3.2979,3.3,3.2948,3.2932,3.2924,3.2916,3.2937,3.2992,3.2992,3.2976,3.2976,3.2975,3.4639,3.4545,3.4443,3.4291,3.4201,3.4135,3.4005,3.3932,3.3825,3.3702,3.3594,3.3446,3.3317,3.3171,3.3031,3.2974,3.2932,3.2942,3.2943,3.2922,3.2902,3.2925,3.2979,3.2979,3.2979,3.2979,3.2979,3.2979,3.4606,3.4549,3.4413,3.4299,3.4201,3.4098,3.4027,3.3917,3.3811,3.3662,3.3586,3.346,3.3317,3.3108,3.3016,3.2911,3.2884,3.2867,3.2862,3.286,3.2868,3.2899,3.2883,3.2883,3.2882,3.2882,3.2881,0,3.4557,3.4497,3.4393,3.4267,3.4179,3.4072,3.3959,3.3913,3.3752,3.3671,3.3545,3.3458,3.3284,3.3152,3.3002,3.2907,3.2822,3.2806,3.2793,3.2828,3.2878,3.2847,3.2816,3.2806,3.2805,3.2804,3.2803,3.2803,3.4515,3.4458,3.4277,3.4215,3.4135,3.4035,3.3958,3.3821,3.3744,3.3581,3.3533,3.3402,3.3289,3.3094,3.2957,3.2824,3.2781,3.2785,3.2759,3.2796,3.2776,3.278,3.2771,3.2792,3.2794,3.2795,3.2796,0,3.4497,3.4372,3.4258,3.4083,3.4037,3.3982,3.3828,3.3762,3.3661,3.3554,3.3521,3.3358,3.3234,3.3095,3.2924,3.2854,3.275,3.2713,3.2799,3.2783,3.2771,3.2773,3.276,3.275,3.2695,3.2695,3.2696,0,3.441,3.434,3.4155,3.4096,3.4011,3.3876,3.3794,3.3698,3.3576,3.3491,3.3377,3.3298,3.3134,3.3033,3.293,3.2821,3.2789,3.2728,3.2701,3.2737,3.2744,3.2689,3.2685,3.2646,3.2647,3.2647,3.2647,0,3.4395,3.4214,3.4117,3.4054,3.3859,3.3815,3.373,3.3592,3.3517,3.3396,3.3344,3.3212,3.3139,3.3036,3.2906,3.2893,3.277,3.2725,3.2707,3.271,3.2684,3.2687,3.2714,3.2647,3.2647,3.2647,3.2647,0,3.4303,3.4192,3.4071,3.3905,3.3862,3.3797,3.3661,3.3573,3.3435,3.3367,3.327,3.3176,3.3073,3.3038,3.2891,3.2911,3.2844,3.2776,3.2772,3.2752,3.2716,3.2746,3.279,3.2787,3.2736,3.2737,3.2737,0,3.4318,3.4164,3.4048,3.3934,3.3843,3.3723,3.3646,3.3529,3.3433,3.3337,3.3228,3.3119,3.3065,3.3011,3.2957,3.2838,3.2812,3.2838,3.2691,3.2688,3.2731,3.277,3.281,3.2796,3.2745,3.2744,3.2744,0,3.4314,3.4081,3.407,3.3992,3.3819,3.3741,3.3655,3.352,3.3463,3.3343,3.3263,3.3107,3.3058,3.297,3.2879,3.283,3.2825,3.2783,3.2777,3.2792,3.2738,3.2777,3.2775,3.2773,3.2772,3.2771,3.275,0,3.4199,3.4106,3.407,3.3906,3.3825,3.3748,3.3606,3.3539,3.3461,3.3362,3.3243,3.3107,3.2964,3.2927,3.2849,3.2783,3.277,3.272,3.2673,3.2701,3.2689,3.2685,3.2701,3.2699,3.2697,3.2696,0,0,3.4242,3.4107,3.3983,3.3897,3.382,3.3696,3.3625,3.3535,3.3357,3.3305,3.3279,3.304,3.293,3.2799,3.2797,3.274,3.2713,3.2709,3.2689,3.269,3.2689,3.268,3.2678,3.2692,3.2692,3.2691,3.269,0,3.4171,3.4074,3.4008,3.3911,3.3764,3.3663,3.3648,3.3477,3.341,3.3295,3.3188,3.3099,3.2913,3.2809,3.2732,3.2723,3.2644,3.269,3.2733,3.2676,3.2679,3.268,3.2672,3.2672,3.2686,3.2686,3.2686,0,3.4139,3.4018,3.3972,3.3798,3.3699,3.3608,3.3527,3.3435,3.3364,3.3226,3.3114,3.3018,3.2868,3.2766,3.2714,3.2687,3.259,3.2595,3.2603,3.2593,3.253,3.2534,3.2537,3.2498,3.2498,3.2498,0,0,3.4096,3.4011,3.3835,3.3772,3.3718,3.3567,3.3505,3.3421,3.3293,3.3242,3.3118,3.2994,3.2882,3.2812,3.27,3.2609,3.2564,3.2579,3.2587,3.2595,3.259,3.2529,3.2533,3.2497,3.2497,3.2497,0,0,3.4073,3.3871,3.3816,3.3726,3.3611,3.3431,3.3395,3.3322,3.3209,3.3201,3.305,3.301,3.2911,3.282,3.2836,3.268,3.2637,3.263,3.2743,3.2752,3.276,3.2783,3.2729,0,0,0,0,0,3.3929,3.3896,3.3849,3.3813,3.3591,3.3458,3.3428,3.3306,3.3279,3.3253,3.3137,3.3059,3.2797,3.2807,3.2771,3.2754,3.2496,3.2496,3.2496,3.2619,3.263,3.2639,0,0,0,0,0,0,3.3914,3.3871,3.385,3.3671,3.362,3.3458,3.3385,3.335,3.3278,3.3265,3.3084,3.3053,3.2942,3.2817,3.2786,3.2773,3.2739,3.2496,3.2496,3.2496,3.2622,3.2632,3.2639,0,0,0,0,0,3.3901,3.3866,3.3543,3.367,3.3626,3.3455,3.3385,3.3355,3.3297,3.3118,3.3085,3.3211,3.2946,3.291,3.2798,3.279,3.2759,3.2748,3.2496,3.2496,3.2496,3.2627,0,0,0,0,0,0,3.3892,3.3836,3.3531,3.3512,3.3675,3.3462,3.3425,3.3361,3.3151,3.3119,3.3238,3.3231,3.2947,3.292,3.2893,3.2803,3.2776,3.2765,3.2758,3.2496,3.2496,3.2496,0,0,0,0,0,0,3.3854,3.3821,3.3521,3.3534,3.3515,3.3468,3.3435,3.3321,3.315,3.3283,3.327,3.3238,3.2984,3.2926,3.2905,3.2732,3.2789,3.2778,3.2771,3.2766,3.2496,3.2496,0,0,0,0,0,0,3.3838,3.3809,3.3537,3.3524,3.3507,3.3291,3.3364,3.3141,3.3168,3.3294,3.3166,3.3165,3.2993,3.2969,3.2914,3.275,3.2737,3.2789,3.2781,3.2776,3.2773,0,0,0,0,0,0,0,3.3825,3.4043,3.3641,3.3515,3.3501,3.3342,3.3337,3.3332,3.3167,3.3167,3.3166,3.3166,3.2851,3.2839,3.2827,3.2765,0,0,3.279,3.2785,0,0,0,0,0,0,0,0,3.4052,3.4045,3.364,3.3636,3.3633,3.3341,3.3337,3.3333,3.3167,3.3167,3.3166,3.3166,3.2848,3.2838,3.2828,0,0,0,0,0,0,0,0,0,0,0,0,0,0,0,3.364,3.3637,0,3.3341,3.3337,3.3334,3.3167,3.3167,3.3166,3.3166,3.2845,3.2837,3.2829,0,0,0,0,0,0,0,0,0,0,0,0,0,0,0,0,0,0,0,0,0,0,0,0,0,0,0,0,0,0,0,0,0,0,0,0,0,0,0,0,0,0,0,0,0,0,0,0,0,0,0,0,0,0,0,0,0,0,0,0,0,0,0,0,0,0,0,0,0]}]]]